| time (UTC) | temp C | wind direction | speed KPH | gust KPH | rain 1hr cm | rain 24hr cm | rain mn cm | humidity % | barometer mb |
| 20260507093607 | 21 | 170 | 4.8 | 0.0 | 0.00 | 0.00 | 0.00 | 88 | 1013.0 |
| 20260507090606 | 20 | 170 | 4.8 | 0.0 | 0.00 | 0.00 | 0.00 | 88 | 1013.0 |
| 20260507083605 | 20 | 70 | 4.8 | 0.0 | 0.00 | 0.00 | 0.00 | 88 | 1013.0 |
| 20260507080604 | 19 | 50 | 4.8 | 0.0 | 0.00 | 0.00 | 0.00 | 88 | 1013.0 |
| 20260507073603 | 22 | 40 | 8.0 | 0.0 | 0.00 | 0.00 | 0.00 | 94 | 1013.0 |
| 20260507070602 | 22 | 40 | 8.0 | 0.0 | 0.00 | 0.00 | 0.00 | 94 | 1013.0 |
| 20260507063601 | 21 | 40 | 8.0 | 0.0 | 0.00 | 0.00 | 0.00 | 94 | 1013.0 |
| 20260507060600 | 21 | 40 | 8.0 | 0.0 | 0.00 | 0.00 | 0.00 | 94 | 1013.0 |
| 20260507053559 | 20 | 40 | 8.0 | 0.0 | 0.00 | 0.00 | 0.00 | 94 | 1013.0 |
| 20260507050558 | 20 | 40 | 6.4 | 0.0 | 0.00 | 0.00 | 0.00 | 94 | 1014.0 |
| 20260507043557 | 19 | 40 | 6.4 | 0.0 | 0.00 | 0.00 | 0.00 | 94 | 1014.0 |
| 20260507040555 | 18 | 40 | 6.4 | 0.0 | 0.00 | 0.00 | 0.00 | 94 | 1014.0 |
| 20260507033554 | 23 | 70 | 8.0 | 0.0 | 0.00 | 0.00 | 0.00 | 88 | 1014.0 |
| 20260507030553 | 22 | 70 | 8.0 | 0.0 | 0.00 | 0.00 | 0.00 | 88 | 1014.0 |
| 20260507023552 | 22 | 70 | 8.0 | 0.0 | 0.00 | 0.00 | 0.00 | 88 | 1014.0 |
| 20260507020551 | 21 | 70 | 8.0 | 0.0 | 0.00 | 0.00 | 0.00 | 88 | 1013.0 |
| 20260507013550 | 25 | 310 | 9.7 | 0.0 | 0.00 | 0.00 | 0.00 | 73 | 1013.0 |
| 20260507010549 | 25 | 310 | 9.7 | 0.0 | 0.00 | 0.00 | 0.00 | 73 | 1012.0 |
| 20260507003548 | 25 | 320 | 12.9 | 0.0 | 0.00 | 0.00 | 0.00 | 69 | 1013.0 |
| 20260507000547 | 25 | 350 | 4.8 | 0.0 | 0.00 | 0.00 | 0.00 | 78 | 1011.0 |
| 20260506233546 | 26 | 350 | 4.8 | 0.0 | 0.00 | 0.00 | 0.00 | 21 | 1011.0 |
| 20260506230545 | 25 | 350 | 4.8 | 0.0 | 0.00 | 0.00 | 0.00 | 21 | 1010.0 |
| 20260506223543 | 26 | 0 | 1.6 | 0.0 | 0.00 | 0.00 | 0.00 | 74 | 1010.0 |
| 20260506220542 | 28 | 100 | 4.8 | 0.0 | 0.00 | 0.00 | 0.00 | 58 | 1009.0 |
| 20260506213541 | 29 | 100 | 6.4 | 0.0 | 0.00 | 0.00 | 0.00 | 58 | 1009.0 |
| 20260506210540 | 28 | 100 | 6.4 | 0.0 | 0.00 | 0.00 | 0.00 | 58 | 1008.0 |
| 20260506203540 | 31 | 180 | 8.0 | 0.0 | 0.00 | 0.00 | 0.00 | 10 | 1008.0 |
| 20260506200538 | 30 | 180 | 8.0 | 0.0 | 0.00 | 0.00 | 0.00 | 10 | 1008.0 |
| 20260506193537 | 30 | 180 | 8.0 | 0.0 | 0.00 | 0.00 | 0.00 | 10 | 1008.0 |
| 20260506190536 | 29 | 180 | 8.0 | 0.0 | 0.00 | 0.00 | 0.00 | 10 | 1009.0 |
| 20260506183535 | 28 | 180 | 8.0 | 0.0 | 0.00 | 0.00 | 0.00 | 10 | 1009.0 |
| 20260506180534 | 28 | 180 | 8.0 | 0.0 | 0.00 | 0.00 | 0.00 | 10 | 1010.0 |
| 20260506173533 | 27 | 180 | 8.0 | 0.0 | 0.00 | 0.00 | 0.00 | 10 | 1010.0 |
| 20260506170532 | 27 | 180 | 8.0 | 0.0 | 0.00 | 0.00 | 0.00 | 10 | 1011.0 |
| 20260506163531 | 26 | 180 | 8.0 | 0.0 | 0.00 | 0.00 | 0.00 | 10 | 1011.0 |
| 20260506160530 | 26 | 180 | 8.0 | 0.0 | 0.00 | 0.00 | 0.00 | 10 | 1013.0 |
| 20260506153529 | 25 | 180 | 8.0 | 0.0 | 0.00 | 0.00 | 0.00 | 10 | 1013.0 |
| 20260506150528 | 25 | 180 | 9.7 | 0.0 | 0.00 | 0.00 | 0.00 | 10 | 1015.0 |
| 20260506143527 | 24 | 180 | 9.7 | 0.0 | 0.00 | 0.00 | 0.00 | 10 | 1015.0 |
| 20260506140526 | 23 | 180 | 9.7 | 0.0 | 0.00 | 0.00 | 0.00 | 10 | 1015.0 |
| 20260506133525 | 23 | 0 | 3.2 | 0.0 | 0.00 | 0.00 | 0.00 | 10 | 1015.0 |
| 20260506130524 | 22 | 0 | 3.2 | 0.0 | 0.00 | 0.00 | 0.00 | 10 | 1015.0 |
| 20260506123523 | 22 | 0 | 1.6 | 0.0 | 0.00 | 0.00 | 0.00 | 10 | 1015.0 |
| 20260506120522 | 21 | 90 | 1.6 | 0.0 | 0.00 | 0.00 | 0.00 | 10 | 1015.0 |
| 20260506113521 | 21 | 90 | 3.2 | 0.0 | 0.00 | 0.00 | 0.00 | 10 | 1015.0 |
| 20260506110520 | 20 | 90 | 3.2 | 0.0 | 0.00 | 0.00 | 0.00 | 10 | 1014.0 |
| 20260506103519 | 20 | 0 | 1.6 | 0.0 | 0.00 | 0.00 | 0.00 | 10 | 1014.0 |
| 20260506100518 | 22 | 40 | 6.4 | 0.0 | 0.00 | 0.00 | 0.00 | 94 | 1013.0 |